Location: Bergfeld
(52.0500°N, 11.7833°E)
Time: 23:30:15
(UTC+00:00)

Cosmos 1992 Rocket - Pass Details

Date: 17 February 2020
Orbit: 759 x 765 km, 74.0° (Epoch: 05 April)

Event Time Altitude Azimuth Distance (km) Brightness Sun altitude
Exits shadow 03:55:35 54° 215° (SW) 928 4.1 -23.6°
Drops below altitude 10° 03:59:59 10° 172° (S) 2,295 6.4 -22.9°
Sets 04:02:21 0° 169° (S) 3,216 7.3 -22.5°
